Date_Time,Julian_Date,Latitude,Longitude,Instrument_Depth,Water_Temperature
(yyyy-mm-dd hh:mn:ss UTC),(JD),(+ deg. North),(+ deg. East),(m),(deg. C)
1981-02-26 22:00:00 UTC,2444662.416667,29.6417,-93.6667,0076,11.9000
1981-02-26 22:30:00 UTC,2444662.437500,29.6417,-93.6667,0076,11.9000
1981-02-26 23:00:00 UTC,2444662.458333,29.6417,-93.6667,0076,11.9000
1981-02-26 23:30:00 UTC,2444662.479167,29.6417,-93.6667,0076,11.9000
1981-02-27 00:00:00 UTC,2444662.500000,29.6417,-93.6667,0076,11.9000
1981-02-27 00:30:00 UTC,2444662.520833,29.6417,-93.6667,0076,11.9000
1981-02-27 01:00:00 UTC,2444662.541667,29.6417,-93.6667,0076,11.9000
1981-02-27 01:30:00 UTC,2444662.562500,29.6417,-93.6667,0076,11.9000
1981-02-27 02:00:00 UTC,2444662.583333,29.6417,-93.6667,0076,11.9000
1981-02-27 02:30:00 UTC,2444662.604167,29.6417,-93.6667,0076,11.9000
1981-02-27 03:00:00 UTC,2444662.625000,29.6417,-93.6667,0076,11.9000
1981-02-27 03:30:00 UTC,2444662.645833,29.6417,-93.6667,0076,11.9000
1981-02-27 04:00:00 UTC,2444662.666667,29.6417,-93.6667,0076,11.9000
1981-02-27 04:30:00 UTC,2444662.687500,29.6417,-93.6667,0076,11.9000
1981-02-27 05:00:00 UTC,2444662.708333,29.6417,-93.6667,0076,11.9000
1981-02-27 05:30:00 UTC,2444662.729167,29.6417,-93.6667,0076,11.9000
1981-02-27 06:00:00 UTC,2444662.750000,29.6417,-93.6667,0076,11.9000
1981-02-27 06:30:00 UTC,2444662.770833,29.6417,-93.6667,0076,11.9000
1981-02-27 07:00:00 UTC,2444662.791667,29.6417,-93.6667,0076,11.9000
1981-02-27 07:30:00 UTC,2444662.812500,29.6417,-93.6667,0076,11.9000
1981-02-27 08:00:00 UTC,2444662.833333,29.6417,-93.6667,0076,12.0000
1981-02-27 08:30:00 UTC,2444662.854167,29.6417,-93.6667,0076,12.0000
1981-02-27 09:00:00 UTC,2444662.875000,29.6417,-93.6667,0076,11.9000
1981-02-27 09:30:00 UTC,2444662.895833,29.6417,-93.6667,0076,11.9000
1981-02-27 10:00:00 UTC,2444662.916667,29.6417,-93.6667,0076,11.9000
1981-02-27 10:30:00 UTC,2444662.937500,29.6417,-93.6667,0076,11.9000
1981-02-27 11:00:00 UTC,2444662.958333,29.6417,-93.6667,0076,12.0000
1981-02-27 11:30:00 UTC,2444662.979167,29.6417,-93.6667,0076,12.0000
1981-02-27 12:00:00 UTC,2444663.000000,29.6417,-93.6667,0076,12.0000
1981-02-27 12:30:00 UTC,2444663.020833,29.6417,-93.6667,0076,12.0000
1981-02-27 13:00:00 UTC,2444663.041667,29.6417,-93.6667,0076,12.0000
1981-02-27 13:30:00 UTC,2444663.062500,29.6417,-93.6667,0076,12.0000
1981-02-27 14:00:00 UTC,2444663.083333,29.6417,-93.6667,0076,12.0000
1981-02-27 14:30:00 UTC,2444663.104167,29.6417,-93.6667,0076,12.0000
1981-02-27 15:00:00 UTC,2444663.125000,29.6417,-93.6667,0076,12.1000
1981-02-27 15:30:00 UTC,2444663.145833,29.6417,-93.6667,0076,12.2000
1981-02-27 16:00:00 UTC,2444663.166667,29.6417,-93.6667,0076,12.2000
1981-02-27 16:30:00 UTC,2444663.187500,29.6417,-93.6667,0076,12.2000
1981-02-27 17:00:00 UTC,2444663.208333,29.6417,-93.6667,0076,12.1000
1981-02-27 17:30:00 UTC,2444663.229167,29.6417,-93.6667,0076,12.0000
1981-02-27 18:00:00 UTC,2444663.250000,29.6417,-93.6667,0076,12.0000
1981-02-27 18:30:00 UTC,2444663.270833,29.6417,-93.6667,0076,11.9000
1981-02-27 19:00:00 UTC,2444663.291667,29.6417,-93.6667,0076,11.9000
1981-02-27 19:30:00 UTC,2444663.312500,29.6417,-93.6667,0076,11.9000
1981-02-27 20:00:00 UTC,2444663.333333,29.6417,-93.6667,0076,11.9000
1981-02-27 20:30:00 UTC,2444663.354167,29.6417,-93.6667,0076,11.9000
1981-02-27 21:00:00 UTC,2444663.375000,29.6417,-93.6667,0076,11.9000
1981-02-27 21:30:00 UTC,2444663.395833,29.6417,-93.6667,0076,12.0000
1981-02-27 22:00:00 UTC,2444663.416667,29.6417,-93.6667,0076,12.0000
1981-02-27 22:30:00 UTC,2444663.437500,29.6417,-93.6667,0076,12.0000
1981-02-27 23:00:00 UTC,2444663.458333,29.6417,-93.6667,0076,12.0000
1981-02-27 23:30:00 UTC,2444663.479167,29.6417,-93.6667,0076,12.0000
1981-02-28 00:00:00 UTC,2444663.500000,29.6417,-93.6667,0076,12.0000
1981-02-28 00:30:00 UTC,2444663.520833,29.6417,-93.6667,0076,12.0000
1981-02-28 01:00:00 UTC,2444663.541667,29.6417,-93.6667,0076,12.0000
1981-02-28 01:30:00 UTC,2444663.562500,29.6417,-93.6667,0076,12.0000
1981-02-28 02:00:00 UTC,2444663.583333,29.6417,-93.6667,0076,12.1000
1981-02-28 02:30:00 UTC,2444663.604167,29.6417,-93.6667,0076,12.1000
1981-02-28 03:00:00 UTC,2444663.625000,29.6417,-93.6667,0076,12.1000
1981-02-28 03:30:00 UTC,2444663.645833,29.6417,-93.6667,0076,12.1000
1981-02-28 04:00:00 UTC,2444663.666667,29.6417,-93.6667,0076,12.1000
1981-02-28 04:30:00 UTC,2444663.687500,29.6417,-93.6667,0076,12.1000
1981-02-28 05:00:00 UTC,2444663.708333,29.6417,-93.6667,0076,12.1000
1981-02-28 05:30:00 UTC,2444663.729167,29.6417,-93.6667,0076,12.1000
1981-02-28 06:00:00 UTC,2444663.750000,29.6417,-93.6667,0076,12.1000
1981-02-28 06:30:00 UTC,2444663.770833,29.6417,-93.6667,0076,12.2000
1981-02-28 07:00:00 UTC,2444663.791667,29.6417,-93.6667,0076,12.2000
1981-02-28 07:30:00 UTC,2444663.812500,29.6417,-93.6667,0076,12.2000
1981-02-28 08:00:00 UTC,2444663.833333,29.6417,-93.6667,0076,12.2000
1981-02-28 08:30:00 UTC,2444663.854167,29.6417,-93.6667,0076,12.2000
1981-02-28 09:00:00 UTC,2444663.875000,29.6417,-93.6667,0076,12.2000
1981-02-28 09:30:00 UTC,2444663.895833,29.6417,-93.6667,0076,12.2000
1981-02-28 10:00:00 UTC,2444663.916667,29.6417,-93.6667,0076,12.2000
1981-02-28 10:30:00 UTC,2444663.937500,29.6417,-93.6667,0076,12.1000
1981-02-28 11:00:00 UTC,2444663.958333,29.6417,-93.6667,0076,12.1000
1981-02-28 11:30:00 UTC,2444663.979167,29.6417,-93.6667,0076,12.0000
1981-02-28 12:00:00 UTC,2444664.000000,29.6417,-93.6667,0076,12.0000
1981-02-28 12:30:00 UTC,2444664.020833,29.6417,-93.6667,0076,12.0000
1981-02-28 13:00:00 UTC,2444664.041667,29.6417,-93.6667,0076,12.0000
1981-02-28 13:30:00 UTC,2444664.062500,29.6417,-93.6667,0076,12.0000
1981-02-28 14:00:00 UTC,2444664.083333,29.6417,-93.6667,0076,12.1000
1981-02-28 14:30:00 UTC,2444664.104167,29.6417,-93.6667,0076,12.1000
1981-02-28 15:00:00 UTC,2444664.125000,29.6417,-93.6667,0076,12.1000
1981-02-28 15:30:00 UTC,2444664.145833,29.6417,-93.6667,0076,12.1000
1981-02-28 16:00:00 UTC,2444664.166667,29.6417,-93.6667,0076,12.1000
1981-02-28 16:30:00 UTC,2444664.187500,29.6417,-93.6667,0076,12.1000
1981-02-28 17:00:00 UTC,2444664.208333,29.6417,-93.6667,0076,12.1000
1981-02-28 17:30:00 UTC,2444664.229167,29.6417,-93.6667,0076,12.1000
1981-02-28 18:00:00 UTC,2444664.250000,29.6417,-93.6667,0076,12.1000
1981-02-28 18:30:00 UTC,2444664.270833,29.6417,-93.6667,0076,12.1000
1981-02-28 19:00:00 UTC,2444664.291667,29.6417,-93.6667,0076,12.1000
1981-02-28 19:30:00 UTC,2444664.312500,29.6417,-93.6667,0076,12.1000
1981-02-28 20:00:00 UTC,2444664.333333,29.6417,-93.6667,0076,12.2000
1981-02-28 20:30:00 UTC,2444664.354167,29.6417,-93.6667,0076,12.2000
1981-02-28 21:00:00 UTC,2444664.375000,29.6417,-93.6667,0076,12.2000
1981-02-28 21:30:00 UTC,2444664.395833,29.6417,-93.6667,0076,12.2000
1981-02-28 22:00:00 UTC,2444664.416667,29.6417,-93.6667,0076,12.2000
1981-02-28 22:30:00 UTC,2444664.437500,29.6417,-93.6667,0076,12.2000
1981-02-28 23:00:00 UTC,2444664.458333,29.6417,-93.6667,0076,12.2000
1981-02-28 23:30:00 UTC,2444664.479167,29.6417,-93.6667,0076,12.2000
1981-03-01 00:00:00 UTC,2444664.500000,29.6417,-93.6667,0076,12.2000
1981-03-01 00:30:00 UTC,2444664.520833,29.6417,-93.6667,0076,12.2000
1981-03-01 01:00:00 UTC,2444664.541667,29.6417,-93.6667,0076,12.2000
1981-03-01 01:30:00 UTC,2444664.562500,29.6417,-93.6667,0076,12.2000
1981-03-01 02:00:00 UTC,2444664.583333,29.6417,-93.6667,0076,12.2000
1981-03-01 02:30:00 UTC,2444664.604167,29.6417,-93.6667,0076,12.2000
1981-03-01 03:00:00 UTC,2444664.625000,29.6417,-93.6667,0076,12.2000
1981-03-01 03:30:00 UTC,2444664.645833,29.6417,-93.6667,0076,12.2000
1981-03-01 04:00:00 UTC,2444664.666667,29.6417,-93.6667,0076,12.2000
1981-03-01 04:30:00 UTC,2444664.687500,29.6417,-93.6667,0076,12.2000
1981-03-01 05:00:00 UTC,2444664.708333,29.6417,-93.6667,0076,12.2000
1981-03-01 05:30:00 UTC,2444664.729167,29.6417,-93.6667,0076,12.2000
1981-03-01 06:00:00 UTC,2444664.750000,29.6417,-93.6667,0076,12.3000
1981-03-01 06:30:00 UTC,2444664.770833,29.6417,-93.6667,0076,12.3000
1981-03-01 07:00:00 UTC,2444664.791667,29.6417,-93.6667,0076,12.3000
1981-03-01 07:30:00 UTC,2444664.812500,29.6417,-93.6667,0076,12.3000
1981-03-01 08:00:00 UTC,2444664.833333,29.6417,-93.6667,0076,12.3000
1981-03-01 08:30:00 UTC,2444664.854167,29.6417,-93.6667,0076,12.3000
1981-03-01 09:00:00 UTC,2444664.875000,29.6417,-93.6667,0076,12.3000
1981-03-01 09:30:00 UTC,2444664.895833,29.6417,-93.6667,0076,12.3000
1981-03-01 10:00:00 UTC,2444664.916667,29.6417,-93.6667,0076,12.2000
1981-03-01 10:30:00 UTC,2444664.937500,29.6417,-93.6667,0076,12.2000
1981-03-01 11:00:00 UTC,2444664.958333,29.6417,-93.6667,0076,12.2000
1981-03-01 11:30:00 UTC,2444664.979167,29.6417,-93.6667,0076,12.2000
1981-03-01 12:00:00 UTC,2444665.000000,29.6417,-93.6667,0076,12.2000
1981-03-01 12:30:00 UTC,2444665.020833,29.6417,-93.6667,0076,12.3000
1981-03-01 13:00:00 UTC,2444665.041667,29.6417,-93.6667,0076,12.3000
1981-03-01 13:30:00 UTC,2444665.062500,29.6417,-93.6667,0076,12.3000
1981-03-01 14:00:00 UTC,2444665.083333,29.6417,-93.6667,0076,12.3000
1981-03-01 14:30:00 UTC,2444665.104167,29.6417,-93.6667,0076,12.2000
1981-03-01 15:00:00 UTC,2444665.125000,29.6417,-93.6667,0076,12.2000
1981-03-01 15:30:00 UTC,2444665.145833,29.6417,-93.6667,0076,12.2000
1981-03-01 16:00:00 UTC,2444665.166667,29.6417,-93.6667,0076,12.2000
1981-03-01 16:30:00 UTC,2444665.187500,29.6417,-93.6667,0076,12.2000
1981-03-01 17:00:00 UTC,2444665.208333,29.6417,-93.6667,0076,12.3000
1981-03-01 17:30:00 UTC,2444665.229167,29.6417,-93.6667,0076,12.3000
1981-03-01 18:00:00 UTC,2444665.250000,29.6417,-93.6667,0076,12.3000
1981-03-01 18:30:00 UTC,2444665.270833,29.6417,-93.6667,0076,12.4000
1981-03-01 19:00:00 UTC,2444665.291667,29.6417,-93.6667,0076,12.5000
1981-03-01 19:30:00 UTC,2444665.312500,29.6417,-93.6667,0076,12.5000
1981-03-01 20:00:00 UTC,2444665.333333,29.6417,-93.6667,0076,12.5000
1981-03-01 20:30:00 UTC,2444665.354167,29.6417,-93.6667,0076,12.5000
1981-03-01 21:00:00 UTC,2444665.375000,29.6417,-93.6667,0076,12.5000
1981-03-01 21:30:00 UTC,2444665.395833,29.6417,-93.6667,0076,12.5000
1981-03-01 22:00:00 UTC,2444665.416667,29.6417,-93.6667,0076,12.5000
1981-03-01 22:30:00 UTC,2444665.437500,29.6417,-93.6667,0076,12.5000
1981-03-01 23:00:00 UTC,2444665.458333,29.6417,-93.6667,0076,12.5000
1981-03-01 23:30:00 UTC,2444665.479167,29.6417,-93.6667,0076,12.5000
1981-03-02 00:00:00 UTC,2444665.500000,29.6417,-93.6667,0076,12.5000
1981-03-02 00:30:00 UTC,2444665.520833,29.6417,-93.6667,0076,12.5000
1981-03-02 01:00:00 UTC,2444665.541667,29.6417,-93.6667,0076,12.5000
1981-03-02 01:30:00 UTC,2444665.562500,29.6417,-93.6667,0076,12.5000
1981-03-02 02:00:00 UTC,2444665.583333,29.6417,-93.6667,0076,12.5000
1981-03-02 02:30:00 UTC,2444665.604167,29.6417,-93.6667,0076,12.5000
1981-03-02 03:00:00 UTC,2444665.625000,29.6417,-93.6667,0076,12.5000
1981-03-02 03:30:00 UTC,2444665.645833,29.6417,-93.6667,0076,12.5000
1981-03-02 04:00:00 UTC,2444665.666667,29.6417,-93.6667,0076,12.5000
1981-03-02 04:30:00 UTC,2444665.687500,29.6417,-93.6667,0076,12.5000
1981-03-02 05:00:00 UTC,2444665.708333,29.6417,-93.6667,0076,12.5000
1981-03-02 05:30:00 UTC,2444665.729167,29.6417,-93.6667,0076,12.4000
1981-03-02 06:00:00 UTC,2444665.750000,29.6417,-93.6667,0076,12.4000
1981-03-02 06:30:00 UTC,2444665.770833,29.6417,-93.6667,0076,12.4000
1981-03-02 07:00:00 UTC,2444665.791667,29.6417,-93.6667,0076,12.4000
1981-03-02 07:30:00 UTC,2444665.812500,29.6417,-93.6667,0076,12.5000
1981-03-02 08:00:00 UTC,2444665.833333,29.6417,-93.6667,0076,12.4000
1981-03-02 08:30:00 UTC,2444665.854167,29.6417,-93.6667,0076,12.4000
1981-03-02 09:00:00 UTC,2444665.875000,29.6417,-93.6667,0076,12.4000
1981-03-02 09:30:00 UTC,2444665.895833,29.6417,-93.6667,0076,12.4000
1981-03-02 10:00:00 UTC,2444665.916667,29.6417,-93.6667,0076,12.5000
1981-03-02 10:30:00 UTC,2444665.937500,29.6417,-93.6667,0076,12.4000
1981-03-02 11:00:00 UTC,2444665.958333,29.6417,-93.6667,0076,12.4000
1981-03-02 11:30:00 UTC,2444665.979167,29.6417,-93.6667,0076,12.3000
1981-03-02 12:00:00 UTC,2444666.000000,29.6417,-93.6667,0076,12.3000
1981-03-02 12:30:00 UTC,2444666.020833,29.6417,-93.6667,0076,12.2000
1981-03-02 13:00:00 UTC,2444666.041667,29.6417,-93.6667,0076,12.2000
1981-03-02 13:30:00 UTC,2444666.062500,29.6417,-93.6667,0076,12.1000
1981-03-02 14:00:00 UTC,2444666.083333,29.6417,-93.6667,0076,12.1000
1981-03-02 14:30:00 UTC,2444666.104167,29.6417,-93.6667,0076,12.2000
1981-03-02 15:00:00 UTC,2444666.125000,29.6417,-93.6667,0076,12.2000
1981-03-02 15:30:00 UTC,2444666.145833,29.6417,-93.6667,0076,12.2000
1981-03-02 16:00:00 UTC,2444666.166667,29.6417,-93.6667,0076,12.2000
1981-03-02 16:30:00 UTC,2444666.187500,29.6417,-93.6667,0076,12.1000
1981-03-02 17:00:00 UTC,2444666.208333,29.6417,-93.6667,0076,12.1000
1981-03-02 17:30:00 UTC,2444666.229167,29.6417,-93.6667,0076,12.1000
1981-03-02 18:00:00 UTC,2444666.250000,29.6417,-93.6667,0076,12.1000
1981-03-02 18:30:00 UTC,2444666.270833,29.6417,-93.6667,0076,12.1000
1981-03-02 19:00:00 UTC,2444666.291667,29.6417,-93.6667,0076,12.1000
1981-03-02 19:30:00 UTC,2444666.312500,29.6417,-93.6667,0076,12.2000
1981-03-02 20:00:00 UTC,2444666.333333,29.6417,-93.6667,0076,12.2000
1981-03-02 20:30:00 UTC,2444666.354167,29.6417,-93.6667,0076,12.2000
1981-03-02 21:00:00 UTC,2444666.375000,29.6417,-93.6667,0076,12.1000
1981-03-02 21:30:00 UTC,2444666.395833,29.6417,-93.6667,0076,12.1000
1981-03-02 22:00:00 UTC,2444666.416667,29.6417,-93.6667,0076,12.1000
1981-03-02 22:30:00 UTC,2444666.437500,29.6417,-93.6667,0076,12.1000
1981-03-02 23:00:00 UTC,2444666.458333,29.6417,-93.6667,0076,12.2000
1981-03-02 23:30:00 UTC,2444666.479167,29.6417,-93.6667,0076,12.3000
1981-03-03 00:00:00 UTC,2444666.500000,29.6417,-93.6667,0076,12.3000
1981-03-03 00:30:00 UTC,2444666.520833,29.6417,-93.6667,0076,12.4000
1981-03-03 01:00:00 UTC,2444666.541667,29.6417,-93.6667,0076,12.5000
1981-03-03 01:30:00 UTC,2444666.562500,29.6417,-93.6667,0076,12.5000
1981-03-03 02:00:00 UTC,2444666.583333,29.6417,-93.6667,0076,12.6000
1981-03-03 02:30:00 UTC,2444666.604167,29.6417,-93.6667,0076,12.8000
1981-03-03 03:00:00 UTC,2444666.625000,29.6417,-93.6667,0076,12.9000
1981-03-03 03:30:00 UTC,2444666.645833,29.6417,-93.6667,0076,12.9000
1981-03-03 04:00:00 UTC,2444666.666667,29.6417,-93.6667,0076,12.6000
1981-03-03 04:30:00 UTC,2444666.687500,29.6417,-93.6667,0076,12.4000
1981-03-03 05:00:00 UTC,2444666.708333,29.6417,-93.6667,0076,12.3000
1981-03-03 05:30:00 UTC,2444666.729167,29.6417,-93.6667,0076,12.3000
1981-03-03 06:00:00 UTC,2444666.750000,29.6417,-93.6667,0076,12.3000
1981-03-03 06:30:00 UTC,2444666.770833,29.6417,-93.6667,0076,12.3000
1981-03-03 07:00:00 UTC,2444666.791667,29.6417,-93.6667,0076,12.3000
1981-03-03 07:30:00 UTC,2444666.812500,29.6417,-93.6667,0076,12.3000
1981-03-03 08:00:00 UTC,2444666.833333,29.6417,-93.6667,0076,12.3000
1981-03-03 08:30:00 UTC,2444666.854167,29.6417,-93.6667,0076,12.4000
1981-03-03 09:00:00 UTC,2444666.875000,29.6417,-93.6667,0076,12.4000
1981-03-03 09:30:00 UTC,2444666.895833,29.6417,-93.6667,0076,12.4000
1981-03-03 10:00:00 UTC,2444666.916667,29.6417,-93.6667,0076,12.4000
1981-03-03 10:30:00 UTC,2444666.937500,29.6417,-93.6667,0076,12.4000
1981-03-03 11:00:00 UTC,2444666.958333,29.6417,-93.6667,0076,12.4000
1981-03-03 11:30:00 UTC,2444666.979167,29.6417,-93.6667,0076,12.4000
1981-03-03 12:00:00 UTC,2444667.000000,29.6417,-93.6667,0076,12.4000
1981-03-03 12:30:00 UTC,2444667.020833,29.6417,-93.6667,0076,12.4000
1981-03-03 13:00:00 UTC,2444667.041667,29.6417,-93.6667,0076,12.4000
1981-03-03 13:30:00 UTC,2444667.062500,29.6417,-93.6667,0076,12.4000
1981-03-03 14:00:00 UTC,2444667.083333,29.6417,-93.6667,0076,12.3000
1981-03-03 14:30:00 UTC,2444667.104167,29.6417,-93.6667,0076,12.3000
1981-03-03 15:00:00 UTC,2444667.125000,29.6417,-93.6667,0076,12.3000
1981-03-03 15:30:00 UTC,2444667.145833,29.6417,-93.6667,0076,12.3000
1981-03-03 16:00:00 UTC,2444667.166667,29.6417,-93.6667,0076,12.3000
1981-03-03 16:30:00 UTC,2444667.187500,29.6417,-93.6667,0076,12.3000
1981-03-03 17:00:00 UTC,2444667.208333,29.6417,-93.6667,0076,12.3000
1981-03-03 17:30:00 UTC,2444667.229167,29.6417,-93.6667,0076,12.3000
1981-03-03 18:00:00 UTC,2444667.250000,29.6417,-93.6667,0076,12.6000
1981-03-03 18:30:00 UTC,2444667.270833,29.6417,-93.6667,0076,12.9000
1981-03-03 19:00:00 UTC,2444667.291667,29.6417,-93.6667,0076,13.2000
1981-03-03 19:30:00 UTC,2444667.312500,29.6417,-93.6667,0076,13.4000
1981-03-03 20:00:00 UTC,2444667.333333,29.6417,-93.6667,0076,13.6000
1981-03-03 20:30:00 UTC,2444667.354167,29.6417,-93.6667,0076,13.8000
1981-03-03 21:00:00 UTC,2444667.375000,29.6417,-93.6667,0076,13.9000
1981-03-03 21:30:00 UTC,2444667.395833,29.6417,-93.6667,0076,13.9000
1981-03-03 22:00:00 UTC,2444667.416667,29.6417,-93.6667,0076,14.0000
1981-03-03 22:30:00 UTC,2444667.437500,29.6417,-93.6667,0076,14.0000
1981-03-03 23:00:00 UTC,2444667.458333,29.6417,-93.6667,0076,14.0000
1981-03-03 23:30:00 UTC,2444667.479167,29.6417,-93.6667,0076,14.1000
1981-03-04 00:00:00 UTC,2444667.500000,29.6417,-93.6667,0076,14.1000
1981-03-04 00:30:00 UTC,2444667.520833,29.6417,-93.6667,0076,14.2000
1981-03-04 01:00:00 UTC,2444667.541667,29.6417,-93.6667,0076,14.3000
1981-03-04 01:30:00 UTC,2444667.562500,29.6417,-93.6667,0076,14.3000
1981-03-04 02:00:00 UTC,2444667.583333,29.6417,-93.6667,0076,14.4000
1981-03-04 02:30:00 UTC,2444667.604167,29.6417,-93.6667,0076,14.4000
1981-03-04 03:00:00 UTC,2444667.625000,29.6417,-93.6667,0076,14.4000
1981-03-04 03:30:00 UTC,2444667.645833,29.6417,-93.6667,0076,14.4000
1981-03-04 04:00:00 UTC,2444667.666667,29.6417,-93.6667,0076,14.4000
1981-03-04 04:30:00 UTC,2444667.687500,29.6417,-93.6667,0076,14.4000
1981-03-04 05:00:00 UTC,2444667.708333,29.6417,-93.6667,0076,14.4000
1981-03-04 05:30:00 UTC,2444667.729167,29.6417,-93.6667,0076,14.4000
1981-03-04 06:00:00 UTC,2444667.750000,29.6417,-93.6667,0076,14.4000
1981-03-04 06:30:00 UTC,2444667.770833,29.6417,-93.6667,0076,14.4000
1981-03-04 07:00:00 UTC,2444667.791667,29.6417,-93.6667,0076,14.4000
1981-03-04 07:30:00 UTC,2444667.812500,29.6417,-93.6667,0076,14.4000
1981-03-04 08:00:00 UTC,2444667.833333,29.6417,-93.6667,0076,14.3000
1981-03-04 08:30:00 UTC,2444667.854167,29.6417,-93.6667,0076,14.3000
1981-03-04 09:00:00 UTC,2444667.875000,29.6417,-93.6667,0076,14.2000
1981-03-04 09:30:00 UTC,2444667.895833,29.6417,-93.6667,0076,14.2000
1981-03-04 10:00:00 UTC,2444667.916667,29.6417,-93.6667,0076,14.2000
1981-03-04 10:30:00 UTC,2444667.937500,29.6417,-93.6667,0076,14.2000
1981-03-04 11:00:00 UTC,2444667.958333,29.6417,-93.6667,0076,14.2000
1981-03-04 11:30:00 UTC,2444667.979167,29.6417,-93.6667,0076,14.2000
1981-03-04 12:00:00 UTC,2444668.000000,29.6417,-93.6667,0076,14.2000
1981-03-04 12:30:00 UTC,2444668.020833,29.6417,-93.6667,0076,14.2000
1981-03-04 13:00:00 UTC,2444668.041667,29.6417,-93.6667,0076,14.2000
1981-03-04 13:30:00 UTC,2444668.062500,29.6417,-93.6667,0076,14.2000
1981-03-04 14:00:00 UTC,2444668.083333,29.6417,-93.6667,0076,14.3000
1981-03-04 14:30:00 UTC,2444668.104167,29.6417,-93.6667,0076,14.3000
1981-03-04 15:00:00 UTC,2444668.125000,29.6417,-93.6667,0076,14.3000
1981-03-04 15:30:00 UTC,2444668.145833,29.6417,-93.6667,0076,14.3000
1981-03-04 16:00:00 UTC,2444668.166667,29.6417,-93.6667,0076,14.3000
1981-03-04 16:30:00 UTC,2444668.187500,29.6417,-93.6667,0076,14.3000
1981-03-04 17:00:00 UTC,2444668.208333,29.6417,-93.6667,0076,14.3000
1981-03-04 17:30:00 UTC,2444668.229167,29.6417,-93.6667,0076,14.3000
1981-03-04 18:00:00 UTC,2444668.250000,29.6417,-93.6667,0076,14.3000
1981-03-04 18:30:00 UTC,2444668.270833,29.6417,-93.6667,0076,14.3000
1981-03-04 19:00:00 UTC,2444668.291667,29.6417,-93.6667,0076,14.3000
1981-03-04 19:30:00 UTC,2444668.312500,29.6417,-93.6667,0076,14.3000
1981-03-04 20:00:00 UTC,2444668.333333,29.6417,-93.6667,0076,14.3000
1981-03-04 20:30:00 UTC,2444668.354167,29.6417,-93.6667,0076,14.3000
1981-03-04 21:00:00 UTC,2444668.375000,29.6417,-93.6667,0076,14.3000
1981-03-04 21:30:00 UTC,2444668.395833,29.6417,-93.6667,0076,14.3000
1981-03-04 22:00:00 UTC,2444668.416667,29.6417,-93.6667,0076,14.3000
1981-03-04 22:30:00 UTC,2444668.437500,29.6417,-93.6667,0076,14.2000
1981-03-04 23:00:00 UTC,2444668.458333,29.6417,-93.6667,0076,14.2000
1981-03-04 23:30:00 UTC,2444668.479167,29.6417,-93.6667,0076,14.2000
1981-03-05 00:00:00 UTC,2444668.500000,29.6417,-93.6667,0076,14.2000
1981-03-05 00:30:00 UTC,2444668.520833,29.6417,-93.6667,0076,14.2000
1981-03-05 01:00:00 UTC,2444668.541667,29.6417,-93.6667,0076,14.2000
1981-03-05 01:30:00 UTC,2444668.562500,29.6417,-93.6667,0076,14.2000
1981-03-05 02:00:00 UTC,2444668.583333,29.6417,-93.6667,0076,14.2000
1981-03-05 02:30:00 UTC,2444668.604167,29.6417,-93.6667,0076,14.2000
1981-03-05 03:00:00 UTC,2444668.625000,29.6417,-93.6667,0076,14.1000
1981-03-05 03:30:00 UTC,2444668.645833,29.6417,-93.6667,0076,14.1000
1981-03-05 04:00:00 UTC,2444668.666667,29.6417,-93.6667,0076,14.1000
1981-03-05 04:30:00 UTC,2444668.687500,29.6417,-93.6667,0076,14.1000
1981-03-05 05:00:00 UTC,2444668.708333,29.6417,-93.6667,0076,14.1000
1981-03-05 05:30:00 UTC,2444668.729167,29.6417,-93.6667,0076,14.1000
1981-03-05 06:00:00 UTC,2444668.750000,29.6417,-93.6667,0076,14.1000
1981-03-05 06:30:00 UTC,2444668.770833,29.6417,-93.6667,0076,14.1000
1981-03-05 07:00:00 UTC,2444668.791667,29.6417,-93.6667,0076,14.1000
1981-03-05 07:30:00 UTC,2444668.812500,29.6417,-93.6667,0076,14.1000
1981-03-05 08:00:00 UTC,2444668.833333,29.6417,-93.6667,0076,14.1000
1981-03-05 08:30:00 UTC,2444668.854167,29.6417,-93.6667,0076,14.2000
1981-03-05 09:00:00 UTC,2444668.875000,29.6417,-93.6667,0076,14.2000
1981-03-05 09:30:00 UTC,2444668.895833,29.6417,-93.6667,0076,14.2000
1981-03-05 10:00:00 UTC,2444668.916667,29.6417,-93.6667,0076,14.2000
1981-03-05 10:30:00 UTC,2444668.937500,29.6417,-93.6667,0076,14.3000
1981-03-05 11:00:00 UTC,2444668.958333,29.6417,-93.6667,0076,14.3000
1981-03-05 11:30:00 UTC,2444668.979167,29.6417,-93.6667,0076,14.3000
1981-03-05 12:00:00 UTC,2444669.000000,29.6417,-93.6667,0076,14.3000
1981-03-05 12:30:00 UTC,2444669.020833,29.6417,-93.6667,0076,14.3000
1981-03-05 13:00:00 UTC,2444669.041667,29.6417,-93.6667,0076,14.3000
1981-03-05 13:30:00 UTC,2444669.062500,29.6417,-93.6667,0076,14.4000
1981-03-05 14:00:00 UTC,2444669.083333,29.6417,-93.6667,0076,14.4000
1981-03-05 14:30:00 UTC,2444669.104167,29.6417,-93.6667,0076,14.5000
1981-03-05 15:00:00 UTC,2444669.125000,29.6417,-93.6667,0076,14.5000
1981-03-05 15:30:00 UTC,2444669.145833,29.6417,-93.6667,0076,14.5000
1981-03-05 16:00:00 UTC,2444669.166667,29.6417,-93.6667,0076,14.5000
1981-03-05 16:30:00 UTC,2444669.187500,29.6417,-93.6667,0076,14.5000
1981-03-05 17:00:00 UTC,2444669.208333,29.6417,-93.6667,0076,14.5000
1981-03-05 17:30:00 UTC,2444669.229167,29.6417,-93.6667,0076,14.6000
1981-03-05 18:00:00 UTC,2444669.250000,29.6417,-93.6667,0076,14.6000
1981-03-05 18:30:00 UTC,2444669.270833,29.6417,-93.6667,0076,14.6000
1981-03-05 19:00:00 UTC,2444669.291667,29.6417,-93.6667,0076,14.6000
1981-03-05 19:30:00 UTC,2444669.312500,29.6417,-93.6667,0076,14.6000
1981-03-05 20:00:00 UTC,2444669.333333,29.6417,-93.6667,0076,14.6000
1981-03-05 20:30:00 UTC,2444669.354167,29.6417,-93.6667,0076,14.5000
1981-03-05 21:00:00 UTC,2444669.375000,29.6417,-93.6667,0076,14.3000
1981-03-05 21:30:00 UTC,2444669.395833,29.6417,-93.6667,0076,14.2000
1981-03-05 22:00:00 UTC,2444669.416667,29.6417,-93.6667,0076,14.2000
1981-03-05 22:30:00 UTC,2444669.437500,29.6417,-93.6667,0076,14.1000
1981-03-05 23:00:00 UTC,2444669.458333,29.6417,-93.6667,0076,14.1000
1981-03-05 23:30:00 UTC,2444669.479167,29.6417,-93.6667,0076,14.1000
1981-03-06 00:00:00 UTC,2444669.500000,29.6417,-93.6667,0076,14.0000
1981-03-06 00:30:00 UTC,2444669.520833,29.6417,-93.6667,0076,14.0000
1981-03-06 01:00:00 UTC,2444669.541667,29.6417,-93.6667,0076,14.0000
1981-03-06 01:30:00 UTC,2444669.562500,29.6417,-93.6667,0076,14.0000
1981-03-06 02:00:00 UTC,2444669.583333,29.6417,-93.6667,0076,14.0000